Regional Weather Roundup
Issued by NWS

Home | Current Version | Previous Version | Graphics & Text | Print | Product List | Glossary Off
Versions: 1 2 3 4 5 6 7 8 9 10 11 12 13 14 15 16 17 18 19 20 21 22 23 24 25 26 27 28 29 30 31 32 33 34 35 36 37 38 39 40 41 42 43 44 45 46 47 48 49 50

000
ASUS43 KTOP 021659
RWRKS

WEATHER ROUNDUP FOR KANSAS
NATIONAL WEATHER SERVICE GOODLAND KS
1200 PM CDT WED SEP 02 2015

NOTE:  "FAIR" INDICATES FEW OR NO CLOUDS BELOW 12,000 FEET WITH NO
SIGNIFICANT WEATHER AND/OR OBSTRUCTIONS TO VISIBILITY.

KSZ001>006-013>018-027>032-041>047-021800-
NORTHWEST KANSAS

CITY           SKY/WX    TMP DP  RH WIND       PRES   REMARKS
GOODLAND       MOSUNNY   88  48  25 N7        29.98F
HAYS           SUNNY     91  59  33 S12G24    29.91F
HILL CITY      SUNNY     90  59  35 S10       29.91S
RUSSELL        SUNNY     92  59  33 S20       29.91S
$$

KSZ061>065-074>080-084>089-021800-
SOUTHWEST KANSAS

CITY           SKY/WX    TMP DP  RH WIND       PRES   REMARKS
DODGE CITY     SUNNY     89  56  32 S20G28    29.96S
ELKHART          N/A     89  58  35 SW6         N/A
GARDEN CITY    SUNNY     86  57  37 SW13      29.95S
GREAT BEND     SUNNY     90  61  37 S17       29.92F
LIBERAL        SUNNY     90  55  31 SW21      29.99F
$$

KSZ066>073-081>083-090>101-021800-
SOUTHEAST KANSAS

CITY           SKY/WX    TMP DP  RH WIND       PRES   REMARKS
CHANUTE        SUNNY     85  70  60 S15       30.06F
COFFEYVILLE    SUNNY     84  72  67 S10       30.06S
HUTCHINSON     SUNNY     90  63  40 S20G29    29.96F
NEWTON         SUNNY     88  64  45 S21G26    30.01F
PARSONS        SUNNY     84  72  67 S7        30.07F
WICHITA INTL   MOSUNNY   89  67  47 S17G24    29.99S
WICHITA JABRA  SUNNY     86  68  54 S16G24    29.99F
WINFIELD       SUNNY     89  67  47 S16G24    30.02F
$$

KSZ007>012-019>026-033>040-048>060-102>105-021800-
NORTHEAST KANSAS

CITY           SKY/WX    TMP DP  RH WIND       PRES   REMARKS
CONCORDIA      SUNNY     88  65  46 S12       29.92S
EMPORIA        PTSUNNY   86  68  54 S16G24    30.01F
LAWRENCE       PTSUNNY   77  72  84 SE10      30.03F
MANHATTAN      PTSUNNY   86  68  54 S14       29.95F
OLATHE IND     CLOUDY    77  71  82 S8        30.06F
OLATHE EXE     LGT RAIN  76  71  85 SE7       30.05F
SALINA         SUNNY     91  63  39 S25G31    29.92F
TOPEKA BILLARD PTSUNNY   79  71  76 SE9       30.01F
TOPEKA FORBES  CLOUDY    80  71  74 S15       30.01F
$$


USA.gov is the U.S. government's official web portal to all federal, state and local government web resources and services.